Location: Bishop�s Knoyle
(51.0728°N, 2.1714°W)
Time: 11:20:58
(UTC+00:00)

SPOT 5 - Visible Passes

Search period start: 20 June 2021 00:00
Search period end: 30 June 2021 00:00
Orbit: 623 x 815 km, 98.2° (Epoch: 18 June)

Date Brightness Start Highest point End Pass type
(mag) Time Alt. Az. Time Alt. Az. Time Alt. Az.
20 Jun 4.2 22:27:53 10° SSW 22:32:28 34° W 22:36:52 10° NNW visible
21 Jun 3.0 21:37:00 10° SSE 21:42:03 87° WSW 21:46:52 10° NNW visible
21 Jun 5.3 23:18:14 10° WSW 23:20:45 14° W 23:23:14 10° WNW visible
22 Jun 4.1 22:25:26 10° SSW 22:30:01 35° W 22:34:24 10° NNW visible
23 Jun 2.9 21:34:36 10° SSE 21:39:36 89° ENE 21:44:21 10° NNW visible
23 Jun 5.3 23:15:39 10° WSW 23:18:16 14° W 23:20:50 10° NW visible
24 Jun 4.0 22:22:59 10° SSW 22:27:32 36° W 22:31:55 10° NNW visible
25 Jun 2.9 21:32:12 10° SSE 21:37:09 85° ENE 21:41:50 10° NNW visible
25 Jun 5.2 23:13:05 10° WSW 23:15:47 15° W 23:18:25 10° NW visible
26 Jun 4.0 22:20:31 10° SSW 22:25:04 37° W 22:29:26 10° NNW visible
27 Jun 2.8 21:29:48 10° SSE 21:34:41 82° ENE 21:39:19 10° NNW visible
27 Jun 5.2 23:10:31 10° SW 23:13:17 15° W 23:16:00 10° NW visible
28 Jun 3.9 22:18:03 10° SSW 22:22:36 39° W 22:26:56 10° NNW visible
29 Jun 2.8 21:27:24 10° SSE 21:32:12 78° ENE 21:36:48 10° NNW visible
29 Jun 5.1 23:07:57 10° SW 23:10:48 16° W 23:13:35 10° NW visible
